sat.trackr.live / text

‹ back to catalog

STARLINK-3664

NORAD 51984 · 2022-025AE

PAYLOAD ACTIVE UNKNOWN

§ Identity

Operator
Country
US
Launch date
2022-03-09
Launch site
AFETR
Launch vehicle
Mass (kg)
RCS (m²)

Purposes: comms

External: N2YO · Heavens-Above · Gunter

§ Orbital elements

Epoch: 2026-09-19T11:42:06.781536Z

Period
93.79 min
Inclination
53.1617°
Eccentricity
0.0001514
Mean motion
15.35391427 rev/d
Perigee alt
458.7 km
Apogee alt
460.8 km
Semi-major
6,837.9 km
B*
8.7579e-5
RAAN
240.3532°
Arg perigee
97.1528°
Mean anomaly
262.9647°
Rev number
25,043

§ Raw data

STARLINK-36641 51984U 22025AE  26262.48757849  .00002674  00000+0  87579-4 0  99962 51984  53.1617 240.3532 0001514  97.1528 262.9647 15.35391427250434

JSON: /api/v1/satellites/51984 · /tle

For live sub-satellite position, see the globe view (requires WebGL).

§ Visibility from observer

Set your observer location to see the next 7 days of passes ≥ 10°. The values pass through the URL so the page stays shareable.

No JS? Fill the form by hand. The geolocation button needs JavaScript.